Weather reports worldwide

Advertisment
Boise/Mun., United States of America (72681): temperature & dewpoint: 09.10.2019 21:00:00 - 15.10.2019 21:00:00 (MDT)Boise/Mun., United States of America (72681): wind speed: 09.10.2019 21:00:00 - 15.10.2019 21:00:00 (MDT)Boise/Mun., United States of America (72681): wind direction: 09.10.2019 21:00:00 - 15.10.2019 21:00:00 (MDT)Boise/Mun., United States of America (72681): reduced air pressure: 09.10.2019 21:00:00 - 15.10.2019 21:00:00 (MDT)Boise/Mun., United States of America (72681): visibility: 09.10.2019 21:00:00 - 15.10.2019 21:00:00 (MDT)Boise/Mun., United States of America (72681): precipitation: 09.10.2019 21:00:00 - 15.10.2019 21:00:00 (MDT)
Date & Time tt [°C] td [°C] ff [km/h] ff [kn] dd ppp [hPa] vv [km] rr [mm]
15.10.2019 21:00:00 14,4 1,1 8 4 E 1018,1 16 -
15.10.2019 20:00:00 16,1 1,1 0 0 N 1018,1 16 -
15.10.2019 19:00:00 18,9 0,0 9 5 W 1017,4 16 -
15.10.2019 18:00:00 22,2 -3,9 9 5 SW 1017,0 16 0,0
15.10.2019 17:00:00 22,8 -3,9 5 3 S 1017,2 16 -
15.10.2019 16:00:00 22,8 -3,3 13 7 SSE 1017,9 16 -
15.10.2019 15:00:00 21,1 -1,7 9 5 SSE 1018,9 16 -
15.10.2019 14:00:00 18,9 -1,7 5 3 SSE 1020,5 16 -
15.10.2019 13:00:00 17,8 -3,9 8 4 - 1021,4 4,0 -
15.10.2019 12:00:00 14,4 -5,0 11 6 ESE 1022,1 16 0,0
15.10.2019 11:00:00 12,8 -5,6 16 9 SE 1022,5 16 -
15.10.2019 10:00:00 10,0 -6,1 9 5 SE 1022,1 16 -
15.10.2019 09:00:00 5,6 -3,9 8 4 ENE 1022,3 16 -
15.10.2019 08:00:00 5,0 -6,1 9 5 ESE 1021,8 16 -
15.10.2019 07:00:00 5,6 -6,1 8 4 SE 1020,4 16 -
15.10.2019 06:00:00 6,1 -6,1 13 7 SE 1019,9 16 0,0
15.10.2019 05:00:00 5,6 -5,6 9 5 ESE 1020,1 16 -
15.10.2019 04:00:00 6,1 -5,6 13 7 SE 1020,0 16 -
15.10.2019 03:00:00 6,1 -5,6 16 9 SE 1020,4 16 -
15.10.2019 02:00:00 6,7 -5,6 13 7 SE 1020,3 16 -
15.10.2019 01:00:00 7,2 -5,0 11 6 SE 1019,6 16 -
15.10.2019 00:00:00 7,8 -3,9 13 7 ESE 1019,2 16 0,0
14.10.2019 23:00:00 6,7 -2,2 9 5 SE 1018,8 16 -
14.10.2019 22:00:00 9,4 -0,6 0 0 N 1018,4 16 -
14.10.2019 21:00:00 10,0 -0,6 5 3 SW 1018,0 16 -
14.10.2019 20:00:00 12,2 -1,1 11 6 WNW 1017,5 16 -
14.10.2019 19:00:00 15,0 -1,7 9 5 NNW 1016,8 16 -
14.10.2019 18:00:00 16,7 -0,6 15 8 N 1016,6 16 0,0
14.10.2019 17:00:00 17,8 0,6 15 8 NNW 1016,4 16 -
14.10.2019 16:00:00 17,8 1,1 11 6 NNW 1016,3 16 -
14.10.2019 15:00:00 17,2 1,7 11 6 N 1016,5 16 -
14.10.2019 14:00:00 15,6 -0,6 13 7 NW 1017,2 16 -
14.10.2019 13:00:00 14,4 -2,2 13 7 WNW 1017,5 16 -
14.10.2019 12:00:00 11,7 -3,3 9 5 W 1017,7 16 0,0
14.10.2019 11:00:00 10,0 -3,3 5 3 W 1017,8 16 -
14.10.2019 10:00:00 7,8 -3,9 5 3 W 1017,4 15 -
14.10.2019 09:00:00 3,9 -6,1 11 6 SE 1016,6 16 -
14.10.2019 08:00:00 3,3 -6,7 11 6 SE 1016,0 16 -
14.10.2019 07:00:00 2,2 -6,7 9 5 S 1015,0 16 -
14.10.2019 06:00:00 3,3 -6,1 9 5 SSE 1014,3 16 0,0
14.10.2019 05:00:00 2,2 -6,7 0 0 N 1013,9 16 -
14.10.2019 04:00:00 2,8 -6,7 5 3 SSE 1013,4 16 -
14.10.2019 03:00:00 3,9 -6,1 5 3 SE 1013,2 16 -
14.10.2019 02:00:00 4,4 -5,6 0 0 N 1012,6 16 -
14.10.2019 01:00:00 4,4 -5,6 8 4 S 1012,5 16 -
14.10.2019 00:00:00 5,6 -5,0 5 3 S 1012,5 16 0,0
13.10.2019 23:00:00 5,6 -5,0 8 4 SE 1012,4 16 -
13.10.2019 22:00:00 6,7 -5,6 8 4 S 1012,2 16 -
13.10.2019 21:00:00 10,0 -3,9 0 0 N 1011,7 16 -
13.10.2019 20:00:00 12,2 -3,9 5 3 W 1011,3 16 -
13.10.2019 19:00:00 14,4 -5,0 9 5 WNW 1011,0 15 -
13.10.2019 18:00:00 16,1 -6,1 5 3 NNW 1010,9 16 0,0
13.10.2019 17:00:00 16,1 -6,1 9 5 WNW 1010,9 16 -
13.10.2019 16:00:00 16,1 -6,7 9 5 WNW 1011,0 16 -
13.10.2019 15:00:00 15,0 -7,2 8 4 - 1012,1 16 -
13.10.2019 14:00:00 15,0 -7,2 8 4 NNE 1013,0 16 -
13.10.2019 13:00:00 13,9 -8,3 5 3 - 1013,7 16 -
13.10.2019 12:00:00 11,1 -7,2 5 3 NE 1014,6 16 0,0
13.10.2019 11:00:00 8,9 -7,8 0 0 N 1015,0 16 -
13.10.2019 10:00:00 5,6 -6,7 8 4 E 1015,3 16 -
13.10.2019 09:00:00 3,9 -7,8 11 6 SE 1014,9 16 -
13.10.2019 08:00:00 2,8 -7,8 11 6 SSE 1014,7 16 -
13.10.2019 07:00:00 2,8 -7,8 15 8 SSE 1014,3 16 -
13.10.2019 06:00:00 2,8 -7,8 13 7 SSE 1014,0 16 0,0
13.10.2019 05:00:00 3,3 -7,8 9 5 SE 1013,9 16 -
13.10.2019 04:00:00 3,3 -7,2 8 4 SE 1014,3 16 -
13.10.2019 03:00:00 2,2 -7,2 0 0 N 1014,4 16 -
13.10.2019 02:00:00 3,3 -7,2 5 3 E 1014,4 16 -
13.10.2019 01:00:00 6,1 -7,8 0 0 N 1014,1 16 -
13.10.2019 00:00:00 6,1 -7,2 9 5 SSE 1014,3 16 0,0
12.10.2019 23:00:00 6,1 -7,8 9 5 SE 1014,7 16 -
12.10.2019 22:00:00 7,8 -7,2 0 0 N 1015,0 16 -
12.10.2019 21:00:00 8,9 -7,8 0 0 N 1015,6 16 -
12.10.2019 20:00:00 11,7 -6,7 8 4 N 1015,4 16 -
12.10.2019 19:00:00 13,3 -7,2 8 4 N 1015,5 16 -
12.10.2019 18:00:00 15,6 -8,3 9 5 N 1015,8 16 0,0
12.10.2019 17:00:00 15,6 -8,3 8 4 NW 1016,2 16 -
12.10.2019 16:00:00 15,6 -8,3 5 3 NE 1016,9 16 -
12.10.2019 15:00:00 13,9 -8,9 0 0 N 1017,7 16 -
12.10.2019 14:00:00 12,8 -8,3 5 3 NNW 1018,9 16 -
12.10.2019 13:00:00 11,7 -8,3 8 4 NW 1020,1 16 -
12.10.2019 12:00:00 9,4 -8,3 5 3 WNW 1020,9 16 0,0
12.10.2019 11:00:00 7,8 -8,3 0 0 N 1021,7 16 -
12.10.2019 10:00:00 5,0 -7,8 13 7 ESE 1022,1 16 -
12.10.2019 09:00:00 1,7 -9,4 13 7 SE 1022,2 16 -
12.10.2019 08:00:00 0,6 -10,0 11 6 SE 1021,9 16 -
12.10.2019 07:00:00 1,7 -8,9 16 9 SE 1021,4 16 -
12.10.2019 06:00:00 0,6 -8,3 5 3 E 1021,2 16 0,0
12.10.2019 05:00:00 2,8 -8,9 21 11 SE 1021,1 16 -
12.10.2019 04:00:00 3,3 -9,4 21 11 SE 1021,2 16 -
12.10.2019 03:00:00 5,0 -10,0 21 11 SE 1021,4 16 -
12.10.2019 02:00:00 4,4 -8,9 16 9 SSE 1021,6 16 -
12.10.2019 01:00:00 4,4 -8,3 16 9 SE 1021,7 16 -
12.10.2019 00:00:00 4,4 -8,3 15 8 SE 1022,3 16 0,0
11.10.2019 23:00:00 4,4 -8,9 9 5 SE 1022,8 16 -
11.10.2019 22:00:00 5,0 -12,2 5 3 ESE 1023,3 16 -
11.10.2019 21:00:00 5,6 -13,3 8 4 ESE 1023,5 16 -
11.10.2019 20:00:00 8,3 -12,2 5 3 S 1023,3 16 -
11.10.2019 19:00:00 12,8 -12,8 8 4 S 1023,3 16 -
11.10.2019 18:00:00 14,4 -12,8 13 7 S 1023,5 16 0,0
11.10.2019 17:00:00 14,4 -12,2 15 8 ESE 1024,3 16 -
11.10.2019 16:00:00 14,4 -8,9 15 8 SSE 1025,3 16 -
11.10.2019 15:00:00 13,3 -8,9 13 7 SSE 1026,4 16 -
11.10.2019 14:00:00 11,7 -7,8 13 7 E 1028,0 16 -
11.10.2019 13:00:00 9,4 -7,8 8 4 - 1029,1 16 -
11.10.2019 12:00:00 7,8 -7,8 13 7 SSE 1030,1 16 0,0
11.10.2019 11:00:00 6,1 -7,2 18 10 SSE 1030,5 16 -
11.10.2019 10:00:00 3,3 -6,7 11 6 SSE 1030,9 16 -
11.10.2019 09:00:00 1,7 -7,2 11 6 ESE 1030,9 16 -
11.10.2019 08:00:00 -0,6 -7,2 16 9 SE 1030,7 16 -
11.10.2019 07:00:00 -0,6 -7,8 15 8 SE 1030,5 16 -
11.10.2019 06:00:00 0,6 -7,8 15 8 SE 1030,1 16 0,0
11.10.2019 05:00:00 -0,6 -7,2 15 8 SE 1030,1 16 -
11.10.2019 04:00:00 -0,6 -7,2 15 8 SE 1030,3 16 -
11.10.2019 03:00:00 0,0 -7,2 16 9 SE 1030,5 16 -
11.10.2019 02:00:00 0,6 -7,2 13 7 SE 1030,2 16 -
11.10.2019 01:00:00 1,1 -7,8 16 9 SE 1030,4 16 -
11.10.2019 00:00:00 1,1 -8,3 18 10 SE 1030,9 16 0,0
10.10.2019 23:00:00 0,0 -10,0 9 5 SE 1031,1 16 -
10.10.2019 22:00:00 2,8 -8,9 0 0 N 1030,8 16 -
10.10.2019 21:00:00 3,3 -8,3 0 0 N 1030,9 16 -
10.10.2019 20:00:00 6,1 -8,9 5 3 WNW 1030,4 16 -
10.10.2019 19:00:00 7,2 -9,4 9 5 WNW 1030,3 16 -
10.10.2019 18:00:00 8,3 -8,9 13 7 WNW 1030,1 16 0,0
10.10.2019 17:00:00 7,8 -8,3 15 8 W 1030,1 16 -
10.10.2019 16:00:00 7,8 -8,3 5 3 WSW 1030,4 16 -
10.10.2019 15:00:00 7,8 -8,3 13 7 N 1030,6 16 -
10.10.2019 14:00:00 6,7 -8,3 0 0 N 1031,5 16 -
10.10.2019 13:00:00 5,0 -7,8 11 6 W 1032,4 16 -
10.10.2019 12:00:00 3,3 -6,7 5 3 W 1032,7 16 -
10.10.2019 11:00:00 1,7 -6,1 8 4 - 1032,7 16 -
10.10.2019 10:00:00 -0,6 -6,7 5 3 W 1032,5 16 -
10.10.2019 09:00:00 -3,3 -7,2 0 0 N 1032,1 16 -
10.10.2019 08:00:00 -4,4 -8,3 0 0 N 1031,3 16 0,0
10.10.2019 07:00:00 -3,3 -7,2 0 0 N 1030,2 16 -
10.10.2019 06:00:00 -3,3 -7,8 0 0 N 1029,8 16 0,0
10.10.2019 05:00:00 -2,8 -6,7 0 0 N 1029,1 16 -
10.10.2019 04:00:00 -2,2 -6,7 11 6 WNW 1028,5 16 -
10.10.2019 03:00:00 -1,7 -6,7 5 3 - 1028,2 16 -
10.10.2019 02:00:00 0,0 -6,1 15 8 WNW 1027,4 16 -
10.10.2019 01:00:00 0,6 -6,1 21 11 WNW 1026,8 16 -
10.10.2019 00:00:00 1,1 -6,1 18 10 WNW 1026,5 16 0,0
09.10.2019 23:00:00 2,2 -6,1 22 12 NW 1025,9 16 -
09.10.2019 22:00:00 2,8 -6,1 18 10 NW 1025,4 16 -
09.10.2019 21:00:00 3,3 -6,1 15 8 NNW 1024,9 16 -

tt = temperature
td = dewpoint
ff = wind speed
dd = wind direction
ppp = reduced air pressure
vv = visibility
rr = precipitation

Next stations